| time (UTC) | temp C | wind direction | speed KPH | gust KPH | rain 1hr cm | rain 24hr cm | rain mn cm | humidity % | barometer mb |
| 20260903234710 | 19 | 237 | 1.6 | 6.4 | 0.00 | 0.00 | 0.00 | 67 | 1023.5 |
| 20260903233207 | 19 | 213 | 1.6 | 6.4 | 0.00 | 0.00 | 0.00 | 67 | 1023.6 |
| 20260903231709 | 19 | 211 | 1.6 | 4.8 | 0.00 | 0.00 | 0.00 | 67 | 1023.6 |
| 20260903230208 | 19 | 236 | 1.6 | 6.4 | 0.00 | 0.00 | 0.00 | 68 | 1023.7 |
| 20260903224708 | 19 | 243 | 1.6 | 4.8 | 0.00 | 0.00 | 0.00 | 66 | 1023.9 |
| 20260903223209 | 20 | 217 | 1.6 | 4.8 | 0.00 | 0.00 | 0.00 | 66 | 1023.9 |
| 20260903221706 | 19 | 232 | 1.6 | 6.4 | 0.00 | 0.00 | 0.00 | 67 | 1023.9 |
| 20260903220206 | 19 | 248 | 1.6 | 4.8 | 0.00 | 0.00 | 0.00 | 67 | 1024.0 |
| 20260903214706 | 18 | 230 | 0.0 | 3.2 | 0.00 | 0.00 | 0.00 | 68 | 1023.9 |
| 20260903213205 | 18 | 230 | 0.0 | 1.6 | 0.00 | 0.00 | 0.00 | 68 | 1023.6 |
| 20260903211706 | 19 | 230 | 0.0 | 4.8 | 0.00 | 0.00 | 0.00 | 67 | 1023.5 |
| 20260903210203 | 19 | 217 | 1.6 | 6.4 | 0.00 | 0.00 | 0.00 | 66 | 1023.4 |
| 20260903201704 | 19 | 264 | 0.0 | 1.6 | 0.00 | 0.00 | 0.00 | 66 | 1023.7 |
| 20260903200202 | 19 | 264 | 0.0 | 1.6 | 0.00 | 0.00 | 0.00 | 67 | 1023.7 |
| 20260903194703 | 20 | 264 | 0.0 | 3.2 | 0.00 | 0.00 | 0.00 | 64 | 1023.4 |
| 20260903191707 | 21 | 296 | 1.6 | 6.4 | 0.00 | 0.00 | 0.00 | 60 | 1023.0 |
| 20260903190204 | 21 | 257 | 1.6 | 6.4 | 0.00 | 0.00 | 0.00 | 60 | 1022.9 |
| 20260903184702 | 21 | 171 | 1.6 | 6.4 | 0.00 | 0.00 | 0.00 | 60 | 1022.8 |
| 20260903183204 | 21 | 235 | 1.6 | 6.4 | 0.00 | 0.00 | 0.00 | 59 | 1022.8 |
| 20260903181703 | 21 | 257 | 1.6 | 6.4 | 0.00 | 0.00 | 0.00 | 58 | 1022.6 |
| 20260903180203 | 22 | 269 | 1.6 | 9.7 | 0.00 | 0.00 | 0.00 | 57 | 1022.7 |
| 20260903173204 | 23 | 256 | 3.2 | 9.7 | 0.00 | 0.00 | 0.00 | 55 | 1022.5 |
| 20260903171704 | 23 | 194 | 3.2 | 11.3 | 0.00 | 0.00 | 0.00 | 54 | 1022.5 |
| 20260903170201 | 23 | 265 | 1.6 | 12.9 | 0.00 | 0.00 | 0.00 | 54 | 1022.6 |
| 20260903164704 | 23 | 285 | 3.2 | 12.9 | 0.00 | 0.00 | 0.00 | 53 | 1022.5 |
| 20260903163201 | 24 | 289 | 4.8 | 14.5 | 0.00 | 0.00 | 0.00 | 53 | 1022.3 |
| 20260903161703 | 24 | 246 | 3.2 | 11.3 | 0.00 | 0.00 | 0.00 | 53 | 1022.4 |
| 20260903160203 | 25 | 232 | 4.8 | 12.9 | 0.00 | 0.00 | 0.00 | 52 | 1022.5 |
| 20260903154701 | 25 | 277 | 4.8 | 12.9 | 0.00 | 0.00 | 0.00 | 51 | 1022.4 |
| 20260903153209 | 25 | 273 | 4.8 | 12.9 | 0.00 | 0.00 | 0.00 | 51 | 1022.6 |
| 20260903151705 | 25 | 246 | 4.8 | 17.7 | 0.00 | 0.00 | 0.00 | 50 | 1022.6 |
| 20260903150204 | 26 | 263 | 4.8 | 16.1 | 0.00 | 0.00 | 0.00 | 48 | 1022.5 |
| 20260903144705 | 26 | 167 | 6.4 | 19.3 | 0.00 | 0.00 | 0.00 | 49 | 1022.5 |
| 20260903143202 | 25 | 246 | 4.8 | 16.1 | 0.00 | 0.00 | 0.00 | 49 | 1022.7 |
| 20260903141704 | 26 | 248 | 6.4 | 22.5 | 0.00 | 0.00 | 0.00 | 48 | 1022.8 |
| 20260903140205 | 26 | 273 | 4.8 | 14.5 | 0.00 | 0.00 | 0.00 | 48 | 1022.8 |
| 20260903134702 | 25 | 243 | 6.4 | 17.7 | 0.00 | 0.00 | 0.00 | 48 | 1022.8 |
| 20260903133747 | 26 | 286 | 4.8 | 17.7 | 0.00 | 0.00 | 0.00 | 49 | 1022.8 |
| 20260903133050 | 25 | 217 | 4.8 | 14.5 | 0.00 | 0.00 | 0.00 | 51 | 1022.9 |
| 20260903124702 | 25 | 290 | 8.0 | 20.9 | 0.00 | 0.00 | 0.00 | 50 | 1023.0 |
| 20260903123202 | 25 | 261 | 6.4 | 17.7 | 0.00 | 0.00 | 0.00 | 49 | 1023.3 |
| 20260903121703 | 25 | 278 | 6.4 | 17.7 | 0.00 | 0.00 | 0.00 | 51 | 1023.5 |
| 20260903114703 | 25 | 232 | 8.0 | 17.7 | 0.00 | 0.00 | 0.00 | 50 | 1023.5 |
| 20260903113207 | 25 | 217 | 6.4 | 17.7 | 0.00 | 0.00 | 0.00 | 48 | 1023.4 |
| 20260903111702 | 26 | 221 | 6.4 | 22.5 | 0.00 | 0.00 | 0.00 | 49 | 1023.5 |
| 20260903110202 | 26 | 287 | 6.4 | 20.9 | 0.00 | 0.00 | 0.00 | 49 | 1023.5 |
| 20260903104706 | 26 | 254 | 6.4 | 22.5 | 0.00 | 0.00 | 0.00 | 49 | 1023.6 |
| 20260903103205 | 25 | 194 | 8.0 | 24.1 | 0.00 | 0.00 | 0.00 | 52 | 1023.6 |
| 20260903101703 | 25 | 281 | 4.8 | 16.1 | 0.00 | 0.00 | 0.00 | 52 | 1023.6 |
| 20260903094703 | 24 | 178 | 6.4 | 16.1 | 0.00 | 0.00 | 0.00 | 54 | 1023.9 |
| 20260903093202 | 24 | 212 | 6.4 | 19.3 | 0.00 | 0.00 | 0.00 | 55 | 1023.9 |
| 20260903091704 | 23 | 219 | 6.4 | 16.1 | 0.00 | 0.00 | 0.00 | 56 | 1024.3 |
| 20260903090203 | 23 | 302 | 4.8 | 17.7 | 0.00 | 0.00 | 0.00 | 56 | 1024.1 |
| 20260903084704 | 23 | 288 | 3.2 | 11.3 | 0.00 | 0.00 | 0.00 | 55 | 1024.1 |
| 20260903083203 | 22 | 132 | 3.2 | 12.9 | 0.00 | 0.00 | 0.00 | 57 | 1024.1 |
| 20260903081707 | 22 | 246 | 3.2 | 12.9 | 0.00 | 0.00 | 0.00 | 60 | 1023.9 |
| 20260903080205 | 22 | 304 | 3.2 | 11.3 | 0.00 | 0.00 | 0.00 | 62 | 1023.9 |
| 20260903073203 | 20 | 348 | 3.2 | 12.9 | 0.00 | 0.00 | 0.00 | 69 | 1024.3 |
| 20260903071703 | 20 | 290 | 3.2 | 9.7 | 0.00 | 0.00 | 0.00 | 70 | 1024.4 |
| 20260903064702 | 18 | 219 | 0.0 | 4.8 | 0.00 | 0.00 | 0.00 | 75 | 1024.2 |
| 20260903063202 | 17 | 277 | 1.6 | 6.4 | 0.00 | 0.00 | 0.00 | 78 | 1024.2 |
| 20260903061702 | 16 | 200 | 1.6 | 4.8 | 0.00 | 0.00 | 0.00 | 81 | 1024.0 |
| 20260903060200 | 15 | 269 | 1.6 | 4.8 | 0.00 | 0.00 | 0.00 | 83 | 1023.9 |
| 20260903053203 | 15 | 253 | 0.0 | 0.0 | 0.00 | 0.00 | 0.00 | 88 | 1023.7 |
| 20260903051700 | 13 | 253 | 0.0 | 0.0 | 0.00 | 0.00 | 0.00 | 91 | 1023.7 |
| 20260903050203 | 13 | 253 | 0.0 | 0.0 | 0.00 | 0.00 | 0.00 | 91 | 1023.6 |
| 20260903044704 | 12 | 253 | 0.0 | 0.0 | 0.00 | 0.00 | 0.00 | 91 | 1023.6 |
| 20260903043201 | 12 | 253 | 0.0 | 0.0 | 0.00 | 0.00 | 0.00 | 90 | 1023.6 |
| 20260903041704 | 13 | 253 | 0.0 | 0.0 | 0.00 | 0.00 | 0.00 | 89 | 1023.6 |
| 20260903040201 | 13 | 253 | 0.0 | 0.0 | 0.00 | 0.00 | 0.00 | 87 | 1023.6 |
| 20260903034706 | 14 | 253 | 0.0 | 0.0 | 0.00 | 0.00 | 0.00 | 86 | 1023.6 |
| 20260903033202 | 15 | 253 | 0.0 | 0.0 | 0.00 | 0.00 | 0.00 | 84 | 1023.7 |
| 20260903030204 | 15 | 253 | 0.0 | 0.0 | 0.00 | 0.00 | 0.00 | 83 | 1023.6 |
| 20260903024702 | 15 | 253 | 0.0 | 0.0 | 0.00 | 0.00 | 0.00 | 82 | 1023.6 |
| 20260903023201 | 15 | 253 | 0.0 | 0.0 | 0.00 | 0.00 | 0.00 | 82 | 1023.6 |
| 20260903021700 | 15 | 253 | 0.0 | 0.0 | 0.00 | 0.00 | 0.00 | 82 | 1023.7 |
| 20260903020201 | 15 | 253 | 0.0 | 0.0 | 0.00 | 0.00 | 0.00 | 81 | 1023.6 |
| 20260903014703 | 15 | 253 | 0.0 | 1.6 | 0.00 | 0.00 | 0.00 | 80 | 1023.6 |
| 20260903013202 | 15 | 253 | 0.0 | 3.2 | 0.00 | 0.00 | 0.00 | 80 | 1023.6 |
| 20260903011701 | 15 | 253 | 0.0 | 0.0 | 0.00 | 0.00 | 0.00 | 82 | 1023.6 |
| 20260903010205 | 15 | 253 | 0.0 | 0.0 | 0.00 | 0.00 | 0.00 | 81 | 1023.4 |
| 20260903004707 | 15 | 253 | 0.0 | 0.0 | 0.00 | 0.00 | 0.00 | 83 | 1023.5 |
| 20260903001702 | 15 | 253 | 0.0 | 0.0 | 0.00 | 0.00 | 0.00 | 82 | 1023.4 |